This is the latest recevied weather packets stored in our database for station/object DB0RES-5. If no packets are shown the sender has not sent any weather packets the latest 10 day(s).
| Time | Temp. | Humidity | Pressure | Rain* | Wind** | Luminosity | Snow |
|---|---|---|---|---|---|---|---|
| 1777550774 | 17.78° C | 26% | 1029.2 hPa | 0 mm | - | - | - |
| 1777550171 | 17.22° C | 27% | 1029.4 hPa | 0 mm | - | - | - |
| 1777549568 | 17.22° C | 28% | 1029.4 hPa | 0 mm | - | - | - |
| 1777548966 | 17.22° C | 29% | 1029.5 hPa | 0 mm | - | - | - |
| 1777548363 | 16.67° C | 29% | 1029.7 hPa | 0 mm | - | - | - |
| 1777547761 | 16.67° C | 30% | 1029.7 hPa | 0 mm | - | - | - |
| 1777547158 | 16.67° C | 30% | 1029.9 hPa | 0 mm | - | - | - |
| 1777546556 | 16.11° C | 30% | 1030 hPa | 0 mm | - | - | - |
| 1777545953 | 16.11° C | 30% | 1029.9 hPa | 0 mm | - | - | - |
| 1777545351 | 16.11° C | 31% | 1030 hPa | 0 mm | - | - | - |
| 1777544748 | 16.11° C | 31% | 1030.1 hPa | 0 mm | - | - | - |
| 1777544145 | 15.56° C | 31% | 1030.2 hPa | 0 mm | - | - | - |
| 1777543543 | 15° C | 32% | 1030.2 hPa | 0 mm | - | - | - |
| 1777542940 | 15° C | 33% | 1030.3 hPa | 0 mm | - | - | - |
| 1777542338 | 15° C | 33% | 1030.4 hPa | 0 mm | - | - | - |
| 1777541735 | 13.89° C | 34% | 1030.5 hPa | 0 mm | - | - | - |
| 1777541133 | 13.89° C | 35% | 1030.6 hPa | 0 mm | - | - | - |
| 1777540530 | 13.33° C | 35% | 1030.9 hPa | 0 mm | - | - | - |
| 1777539927 | 13.33° C | 35% | 1030.9 hPa | 0 mm | - | - | - |
| 1777539325 | 13.33° C | 35% | 1031.1 hPa | 0 mm | - | - | - |
| 1777538722 | 13.33° C | 36% | 1031.3 hPa | 0 mm | - | - | - |
| 1777538120 | 12.78° C | 36% | 1031.3 hPa | 0 mm | - | - | - |
| 1777537517 | 12.78° C | 36% | 1031.2 hPa | 0 mm | - | - | - |
| 1777536975 | 12.78° C | 37% | 1031.3 hPa | 0 mm | - | - | - |
| 1777536372 | 12.78° C | 36% | 1031.3 hPa | 0 mm | - | - | - |
* Rain latest hour (hover to see other rain measurements)
** Current wind speed in m/s (hover to see current wind gust speed)